Regional Weather Roundup
Issued by NWS

Current Version | Previous Version | Text Only | Print | Product List | Glossary On
Versions: 1 2 3 4 5 6 7 8 9 10 11 12 13 14 15 16 17 18 19 20 21 22 23 24 25 26 27 28 29 30 31 32 33 34 35 36 37 38 39 40 41 42 43 44 45 46 47 48 49 50
000
ASUS43 KTOP 161408
RWRKS

WEATHER ROUNDUP FOR KANSAS
NATIONAL WEATHER SERVICE GOODLAND KS
900 AM CDT WED APR 16 2014

NOTE:  "FAIR" INDICATES FEW OR NO CLOUDS BELOW 12,000 FEET WITH NO
SIGNIFICANT WEATHER AND/OR OBSTRUCTIONS TO VISIBILITY.

KSZ001>006-013>018-027>032-041>047-161500-
NORTHWEST KANSAS

CITY           SKY/WX    TMP DP  RH WIND       PRES   REMARKS
GOODLAND       SUNNY     46  33  60 NW24G37   29.80R
HAYS           PTSUNNY   50  19  29 S16       29.71S
HILL CITY      MOSUNNY   50  27  40 W10       29.69R
RUSSELL        PTSUNNY   49  21  33 S26G35    29.70R
$$

KSZ061>065-074>080-084>089-161500-
SOUTHWEST KANSAS

CITY           SKY/WX    TMP DP  RH WIND       PRES   REMARKS
DODGE CITY     PTSUNNY   49  19  30 SW13      29.76R
ELKHART          N/A     46  23  40 N7          N/A
GARDEN CITY    PTSUNNY   48  29  47 NW9       29.76R
GREAT BEND     PTSUNNY   48  21  34 S24G30    29.74R
LIBERAL        PTSUNNY   48  19  32 SW8       29.80R
PRATT          MOSUNNY   46  23  39 S24G31    29.79R
$$

KSZ066>073-081>083-090>101-161500-
SOUTHEAST KANSAS

CITY           SKY/WX    TMP DP  RH WIND       PRES   REMARKS
CHANUTE        MOSUNNY   49  31  49 S24G32    29.99S
COFFEYVILLE    PTSUNNY   50  31  48 S17G25    30.01S
HUTCHINSON     MOSUNNY   52  26  36 S29G39    29.80R
MEDICINE LODGE   N/A     50  26  39 S21G35    29.80S
NEWTON         SUNNY     52  25  35 S29G43    29.85R
PARSONS        MOSUNNY   49  30  48 S18G25    30.01S
WICHITA INTL   MOSUNNY   50  28  42 S30G39    29.83F
WICHITA JABRA  SUNNY     51  27  39 S33G49    29.84F
WICHITA MCCONL SUNNY     50  26  39 S35G41    29.85F
WINFIELD       SUNNY     52  29  41 S28G39    29.92R
$$

KSZ007>012-019>026-033>040-048>060-102>105-161500-
NORTHEAST KANSAS

CITY           SKY/WX    TMP DP  RH WIND       PRES   REMARKS
CONCORDIA      PTSUNNY   51  23  33 S25G43    29.72F
EMPORIA        SUNNY     50  27  40 S31G40    29.87S
LAWRENCE       SUNNY     52  30  43 S23G35    29.91F
MANHATTAN      PTSUNNY   53  26  35 S22G33    29.79F
OLATHE IND     MOSUNNY   48  29  47 S21G29    29.95F
OLATHE EXE     SUNNY     48  28  46 S23G30    29.95F
SALINA         PTSUNNY   52  24  33 S26G40    29.77R
TOPEKA BILLARD SUNNY     52  28  39 S21G37    29.89R
TOPEKA FORBES  SUNNY     50  28  42 S24G33    29.87F
$$



USA.gov is the U.S. government's official web portal to all federal, state and local government web resources and services.